Location: Lake Runnemede Observatory
(43.4843°N, 72.3851°W)
Time: 11:13:15
(UTC-04:00)

Amateur Radio Satellites - All Passes

Search period start: 27 August 2016 10:43
Search period end: 28 August 2016 10:43
Location: Lake Runnemede Observatory, 43.4843°N, 72.3851°W

Satellite Date Start Highest point End Downlink Frequencies (MHz)
Time Altitude Azimuth
BUGSAT 1 27 Aug 10:44:14 10:45:14 11° 60° (ENE) 10:46:14 437.445
GONETS M04 27 Aug 10:46:47 10:52:50 21° 78° (ENE) 10:58:54
POPSAT HIP 1 27 Aug 10:50:48 10:54:33 30° 68° (ENE) 10:58:17 437.405
ISS 27 Aug 10:57:40 11:00:36 29° 342° (NNW) 11:03:32 145.825
BEESAT 3 27 Aug 11:00:21 11:03:57 34° 311° (NW) 11:07:36 437.485
AAUSAT CUBESAT 2 27 Aug 11:08:16 11:08:48 10° 299° (WNW) 11:09:19 437.432
TIGRISAT 27 Aug 11:08:53 11:12:54 29° 264° (W) 11:16:52 435.000
RS-15 27 Aug 11:10:50 11:23:08 73° 243° (WSW) 11:35:12 29.354- 29.394
DELFI C3 27 Aug 11:13:32 11:17:17 40° 288° (WNW) 11:21:02 145.870
DUCHIFAT 1 27 Aug 11:18:39 11:22:48 53° 72° (ENE) 11:26:57 145.980
QB50P2 27 Aug 11:20:28 11:24:43 68° 75° (ENE) 11:28:59 145.880/145.840
POLYITAN 1 27 Aug 11:22:59 11:27:14 69° 75° (ENE) 11:31:31 437.675
CUBEBUG 1 27 Aug 11:24:49 11:26:53 13° 90° (E) 11:28:57 437.445
HUMSAT D 27 Aug 11:25:50 11:29:53 64° 285° (WNW) 11:33:55 437.325/437.525
DANDE 27 Aug 11:26:29 11:31:45 90° 32° (NNE) 11:38:43 436.750
NANOSAT C BR1 27 Aug 11:32:05 11:36:21 81° 74° (ENE) 11:40:38 145.865
AUBIESAT-1 27 Aug 11:38:58 11:42:29 27° 100° (E) 11:45:45 437.475
UNISAT 6 27 Aug 11:39:09 11:41:40 14° 269° (W) 11:44:10 437.425
Oscar 19 27 Aug 11:40:07 11:41:22 11° 55° (NE) 11:42:38 437.125/150
M-CUBED/EXP-1 PRIME 27 Aug 11:43:58 11:47:54 39° 102° (ESE) 11:51:31 437.505
Oscar 11 27 Aug 11:45:39 11:46:47 11° 300° (WNW) 11:47:56 145.826/435.025
PCSat 27 Aug 11:53:09 11:58:20 49° 114° (ESE) 12:03:33 145.827
ESTCUBE 1 27 Aug 11:58:13 12:02:35 45° 99° (E) 12:06:55 437.505/2401.250
AISAT 27 Aug 12:08:45 12:12:47 32° 97° (E) 12:16:46 437.250
Cosmos 2499 27 Aug 12:08:51 12:16:43 54° 91° (E) 12:24:02 435.465 / 435.565
50 SAT 27 Aug 12:11:47 12:15:03 30° 97° (E) 12:18:19 437.505
BUGSAT 1 27 Aug 12:15:41 12:19:57 83° 258° (WSW) 12:24:14 437.445
QB50P1 27 Aug 12:16:27 12:20:16 31° 263° (W) 12:24:07 145.935-145.965
CUSAT 1 27 Aug 12:18:19 12:22:39 19° 273° (W) 12:27:28 437.405
JAS-2 27 Aug 12:20:31 12:25:42 78° 257° (WSW) 12:31:15 435.910
BEESAT 2 27 Aug 12:20:41 12:22:55 14° 322° (NW) 12:25:10 435.950
UKube-1 27 Aug 12:20:43 12:24:04 21° 94° (E) 12:27:23 .
POPSAT HIP 1 27 Aug 12:26:45 12:30:19 25° 265° (W) 12:33:53 437.405
ISS 27 Aug 12:35:19 12:37:48 19° 2° (N) 12:40:16 145.825
GONETS M04 27 Aug 12:39:44 12:48:29 83° 277° (W) 12:57:23
Gurwin Techsat 1B 27 Aug 12:43:59 12:47:46 20° 61° (ENE) 12:51:33 435.225
AIST 2 27 Aug 12:47:59 12:52:05 75° 120° (ESE) 12:56:13 435.215
VELOX 1 27 Aug 12:55:51 13:00:21 85° 286° (WNW) 13:04:48 145.980
DUCHIFAT 1 27 Aug 12:56:31 12:58:48 14° 269° (W) 13:01:06 145.980
CUBEBUG 1 27 Aug 12:59:11 13:03:35 63° 287° (WNW) 13:07:56 437.445
QB50P2 27 Aug 12:59:38 13:00:58 11° 271° (W) 13:02:18 145.880/145.840
POLYITAN 1 27 Aug 13:02:15 13:03:30 11° 271° (W) 13:04:45 437.675
DANDE 27 Aug 13:11:32 13:14:14 14° 272° (W) 13:17:14 436.750
AUBIESAT-1 27 Aug 13:13:26 13:16:51 25° 299° (WNW) 13:20:03 437.475
AO-7 27 Aug 13:13:32 13:18:17 17° 44° (NE) 13:23:01 29.400- 29.500
Oscar 19 27 Aug 13:14:38 13:19:46 74° 74° (ENE) 13:24:57 437.125/150
DX 1 27 Aug 13:14:39 13:19:03 79° 285° (WNW) 13:23:25 434.975-435.025
SPROUT 27 Aug 13:18:45 13:23:03 89° 288° (WNW) 13:27:19 437.525
M-CUBED/EXP-1 PRIME 27 Aug 13:19:03 13:22:06 20° 302° (WNW) 13:25:00 437.505
RS-15 27 Aug 13:26:05 13:33:20 18° 264° (W) 13:40:32 29.354- 29.394
ESTCUBE 1 27 Aug 13:35:47 13:39:05 20° 296° (WNW) 13:42:22 437.505/2401.250
PCSat 27 Aug 13:37:15 13:41:57 29° 313° (NW) 13:46:40 145.827
TISAT 1 27 Aug 13:39:35 13:43:24 32° 97° (E) 13:47:09 437.305
AO-85 27 Aug 13:43:11 13:47:11 34° 47° (NE) 13:50:54 145.980
O/OREOS (USA 219) 27 Aug 13:44:32 13:48:37 36° 106° (ESE) 13:52:47 437.305
AISAT 27 Aug 13:45:24 13:49:07 26° 294° (WNW) 13:52:48 437.250
50 SAT 27 Aug 13:45:52 13:48:26 18° 293° (WNW) 13:50:59 437.505
UKube-1 27 Aug 13:56:13 14:00:13 36° 291° (WNW) 14:04:11 .
Cosmos 2499 27 Aug 14:03:01 14:10:06 32° 290° (WNW) 14:16:45 435.465 / 435.565
ITUPSAT 1 27 Aug 14:05:12 14:07:08 12° 89° (E) 14:09:05 437.325
ISS 27 Aug 14:11:52 14:14:56 35° 22° (NNE) 14:17:59 145.825
Gurwin Techsat 1B 27 Aug 14:22:00 14:27:15 60° 259° (WSW) 14:32:31 435.225
ITAMSAT 1 27 Aug 14:28:07 14:33:07 52° 70° (ENE) 14:38:09 435.822/435.867
AIST 2 27 Aug 14:28:27 14:31:03 16° 321° (NW) 14:33:41 435.215
SWISSCUBE 27 Aug 14:36:42 14:40:52 29° 96° (E) 14:45:00 437.505
GONETS M04 27 Aug 14:41:00 14:46:49 19° 301° (WNW) 14:52:42
BEESAT 27 Aug 14:53:41 14:58:08 38° 98° (E) 15:02:34 436.000
Oscar 19 27 Aug 14:56:56 14:59:39 14° 271° (W) 15:02:22 437.125/150
AO-7 27 Aug 15:01:16 15:09:29 65° 66° (ENE) 15:17:42 29.400- 29.500
TISAT 1 27 Aug 15:15:32 15:18:52 23° 294° (WNW) 15:22:11 437.305
AO-85 27 Aug 15:23:58 15:27:27 25° 247° (WSW) 15:30:44 145.980
O/OREOS (USA 219) 27 Aug 15:24:24 15:28:07 25° 304° (NW) 15:31:52 437.305
HORYU 2 27 Aug 15:31:28 15:32:46 11° 59° (ENE) 15:34:04 437.375
ITUPSAT 1 27 Aug 15:40:44 15:45:30 75° 286° (WNW) 15:50:16 437.325
ISS 27 Aug 15:48:20 15:51:26 40° 220° (SW) 15:54:32 145.825
ITAMSAT 1 27 Aug 16:09:03 16:12:53 21° 267° (W) 16:16:44 435.822/435.867
SWISSCUBE 27 Aug 16:14:26 16:18:38 32° 293° (WNW) 16:22:50 437.505
Cosmos 2491 27 Aug 16:26:42 16:29:09 11° 71° (ENE) 16:31:35 435.465 / 435.565
BEESAT 27 Aug 16:31:52 16:35:43 25° 295° (WNW) 16:39:33 436.000
YUBILEINY 27 Aug 16:37:29 16:45:21 35° 69° (ENE) 16:53:06 435.215
KKS-1 27 Aug 16:42:57 16:47:23 60° 102° (ESE) 16:51:46 437.445
MOZHAYETS 4 27 Aug 16:46:44 16:51:20 87° 103° (ESE) 16:55:55
AO-7 27 Aug 16:55:39 17:02:44 30° 265° (W) 17:09:53 29.400- 29.500
Cubesat XI-IV 27 Aug 16:56:00 16:59:36 19° 60° (ENE) 17:03:12 437.490
GOMX 1 27 Aug 16:58:02 17:01:24 18° 60° (ENE) 17:04:54 467.674
Cosmos 2504 27 Aug 17:02:42 17:06:33 15° 59° (ENE) 17:10:20 435.465 / 435.565
HORYU 2 27 Aug 17:04:09 17:08:38 86° 255° (WSW) 17:13:08 437.375
CUTE-I 27 Aug 17:07:18 17:11:25 23° 63° (ENE) 17:15:32 437.470
DOVE 4 27 Aug 17:08:34 17:09:38 11° 56° (NE) 17:10:43 437.250
NOAA 15 27 Aug 17:08:52 17:13:21 30° 65° (ENE) 17:17:52 137.62
BRITE-PL 27 Aug 17:18:59 17:23:41 51° 71° (ENE) 17:28:48 437.365/2234.400
STARS 27 Aug 17:19:31 17:23:56 73° 102° (ESE) 17:28:17 437.465
BEESAT 2 27 Aug 17:21:35 17:22:56 11° 35° (NE) 17:24:16 435.950
HO-68 27 Aug 17:28:50 17:30:00 10° 45° (NE) 17:31:12 435.675
LilacSat-2 27 Aug 17:33:24 17:36:41 27° 69° (ENE) 17:39:57 437.200
BEESAT 3 27 Aug 17:38:53 17:42:07 23° 44° (NE) 17:45:21 437.485
NOAA 18 27 Aug 17:44:13 17:49:26 45° 68° (ENE) 17:54:41 137.9125
CUBESAT XI-V 27 Aug 18:06:05 18:10:48 77° 103° (ESE) 18:15:31 437.345
Cosmos 2491 27 Aug 18:15:31 18:24:04 64° 92° (E) 18:32:41 435.465 / 435.565
KKS-1 27 Aug 18:20:52 18:23:27 15° 299° (WNW) 18:26:02 437.445
MOZHAYETS 4 27 Aug 18:26:24 18:27:48 11° 301° (WNW) 18:29:12
GOMX 1 27 Aug 18:33:47 18:38:50 70° 259° (W) 18:44:14 467.674
Cubesat XI-IV 27 Aug 18:33:49 18:39:08 66° 258° (WSW) 18:44:28 437.490
YUBILEINY 27 Aug 18:34:03 18:42:31 55° 270° (W) 18:50:54 435.215
CANX-2 27 Aug 18:37:12 18:39:25 14° 63° (ENE) 18:41:39 2200.000
DOVE 4 27 Aug 18:41:10 18:46:18 69° 74° (ENE) 18:51:36 437.250
CUTE 1.7 + AOD 2 27 Aug 18:43:18 18:45:34 14° 63° (ENE) 18:47:49 437.475
CUTE-I 27 Aug 18:45:56 18:51:07 51° 260° (W) 18:56:19 437.470
NOAA 15 27 Aug 18:48:08 18:52:59 38° 262° (W) 18:57:54 137.62
Cosmos 2504 27 Aug 18:53:57 19:01:16 81° 82° (E) 19:08:26 435.465 / 435.565
BEESAT 2 27 Aug 18:57:30 19:01:31 69° 54° (NE) 19:05:30 435.950
STARS 27 Aug 18:57:46 18:59:41 13° 300° (WNW) 19:01:36 437.465
PCSat 27 Aug 18:58:09 19:00:15 12° 32° (NNE) 19:02:20 145.827
BRITE-PL 27 Aug 18:58:59 19:02:32 20° 271° (W) 19:06:18 437.365/2234.400
LilacSat-2 27 Aug 19:07:55 19:10:58 22° 266° (W) 19:14:00 437.200
HO-68 27 Aug 19:09:12 19:16:03 49° 65° (ENE) 19:22:54 435.675
BEESAT 3 27 Aug 19:16:12 19:19:55 38° 243° (WSW) 19:23:35 437.485
STRAND 1 27 Aug 19:22:39 19:26:54 26° 95° (E) 19:31:08 437.568
CINEMA 3 27 Aug 19:23:17 19:28:10 54° 72° (ENE) 19:33:00 145.822/145.860
NOAA 18 27 Aug 19:25:38 19:30:15 27° 265° (W) 19:34:54 137.9125
AIST 2 27 Aug 19:31:27 19:33:07 12° 35° (NE) 19:34:47 435.215
UWE-3 27 Aug 19:42:05 19:45:00 17° 64° (ENE) 19:47:54 435.000/436.395/437.385
CUBEBUG 2 27 Aug 19:43:11 19:47:00 26° 67° (ENE) 19:50:46 437.445
CUBESAT XI-V 27 Aug 19:45:19 19:47:33 13° 300° (WNW) 19:49:48 437.345
AIST 1 27 Aug 19:47:56 19:51:38 25° 73° (ENE) 19:55:17
SEEDS 27 Aug 19:49:27 19:53:27 49° 73° (ENE) 19:57:29 437.485
ZACube-1 27 Aug 19:57:13 19:59:51 16° 63° (ENE) 20:02:27 437.345
CANX-2 27 Aug 20:10:41 20:14:49 57° 260° (W) 20:18:58 2200.000
Cosmos 2491 27 Aug 20:14:07 20:21:32 30° 293° (WNW) 20:29:01 435.465 / 435.565
CUTE 1.7 + AOD 2 27 Aug 20:16:49 20:20:56 56° 260° (W) 20:25:05 437.475
AAUSAT CUBESAT 2 27 Aug 20:20:47 20:24:49 60° 74° (ENE) 20:28:53 437.432
DOVE 4 27 Aug 20:21:23 20:24:30 16° 272° (W) 20:27:41 437.250
DELFI C3 27 Aug 20:27:59 20:29:30 12° 62° (ENE) 20:31:01 145.870
COMPASS 1 27 Aug 20:28:41 20:32:48 86° 257° (WSW) 20:36:58 437.405
BEESAT 2 27 Aug 20:37:23 20:38:47 12° 251° (WSW) 20:40:10 435.950
PCSat 27 Aug 20:39:41 20:44:59 51° 54° (NE) 20:50:15 145.827
Cosmos 2504 27 Aug 20:49:15 20:53:36 17° 282° (WNW) 20:57:55 435.465 / 435.565
GONETS M04 27 Aug 20:55:45 20:58:00 11° 50° (NE) 21:00:15
HO-68 27 Aug 20:57:28 21:03:55 35° 264° (W) 21:10:24 435.675
STRAND 1 27 Aug 21:01:27 21:06:12 40° 291° (WNW) 21:10:55 437.568
CINEMA 3 27 Aug 21:02:01 21:05:34 19° 269° (W) 21:09:06 145.822/145.860
Oscar 11 27 Aug 21:02:29 21:06:45 71° 75° (ENE) 21:11:03 145.826/435.025
PRISM 27 Aug 21:02:38 21:06:17 28° 96° (E) 21:09:52 437.425
AIST 2 27 Aug 21:08:12 21:12:23 69° 54° (NE) 21:16:33 435.215
FUNcube-1 27 Aug 21:09:44 21:14:11 79° 75° (ENE) 21:18:33 145.935
UWE-3 27 Aug 21:16:36 21:21:05 53° 260° (W) 21:25:29 435.000/436.395/437.385
CUBEBUG 2 27 Aug 21:19:10 21:23:28 35° 263° (W) 21:27:42 437.445
AIST 1 27 Aug 21:25:24 21:29:12 29° 270° (W) 21:32:59
SEEDS 27 Aug 21:27:08 21:29:26 14° 269° (W) 21:31:45 437.485
ZACube-1 27 Aug 21:31:19 21:35:43 57° 260° (W) 21:40:02 437.345
UNISAT 6 27 Aug 21:53:36 21:54:17 10° 88° (E) 21:54:59 437.425
AAUSAT CUBESAT 2 27 Aug 21:59:15 22:00:42 12° 271° (W) 22:02:09 437.432
Cosmos 2499 27 Aug 21:59:38 22:04:07 17° 62° (ENE) 22:08:35 435.465 / 435.565
DELFI C3 27 Aug 21:59:57 22:03:50 61° 260° (W) 22:07:45 145.870
O/OREOS (USA 219) 27 Aug 22:15:27 22:17:20 12° 48° (NE) 22:19:13 437.305
HUMSAT D 27 Aug 22:17:43 22:21:53 83° 258° (WSW) 22:26:02 437.325/437.525
VELOX 1 27 Aug 22:21:07 22:22:32 11° 59° (ENE) 22:23:57 145.980
CUBEBUG 1 27 Aug 22:22:12 22:24:27 14° 61° (ENE) 22:26:41 437.445
PCSat 27 Aug 22:23:43 22:28:03 25° 252° (WSW) 22:32:22 145.827
AUBIESAT-1 27 Aug 22:24:35 22:29:02 48° 66° (ENE) 22:33:29 437.475
ANTELSAT 27 Aug 22:28:06 22:31:41 25° 95° (E) 22:35:13 437.575/2403.000
M-CUBED/EXP-1 PRIME 27 Aug 22:30:02 22:34:41 65° 69° (ENE) 22:39:21 437.505
PRISM 27 Aug 22:37:59 22:41:30 26° 293° (WNW) 22:44:59 437.425
DX 1 27 Aug 22:38:10 22:39:42 12° 59° (ENE) 22:41:15 434.975-435.025
Oscar 11 27 Aug 22:42:18 22:43:22 11° 271° (W) 22:44:26 145.826/435.025
AIST 2 27 Aug 22:48:31 22:50:19 13° 251° (WSW) 22:52:06 435.215
GONETS M04 27 Aug 22:48:40 22:57:20 54° 75° (ENE) 23:05:54
50 SAT 27 Aug 22:50:52 22:53:15 17° 66° (ENE) 22:55:39 437.505
TIGRISAT 27 Aug 22:58:37 23:02:49 51° 100° (E) 23:06:56 435.000
ESTCUBE 1 27 Aug 22:58:41 23:02:57 47° 71° (ENE) 23:07:17 437.505/2401.250
AISAT 27 Aug 23:07:03 23:11:03 33° 69° (ENE) 23:15:05 437.250
UKube-1 27 Aug 23:16:27 23:19:47 22° 65° (ENE) 23:23:07 .
NANOSAT C BR1 27 Aug 23:17:29 23:18:59 12° 89° (E) 23:20:30 145.865
UNISAT 6 27 Aug 23:27:14 23:31:33 72° 284° (WNW) 23:35:46 437.425
JAS-2 27 Aug 23:28:11 23:32:13 16° 89° (E) 23:36:26 435.910
RS-15 27 Aug 23:29:34 23:35:35 16° 94° (E) 23:41:42 29.354- 29.394
CUSAT 1 27 Aug 23:41:16 23:44:09 72° 97° (E) 23:47:47 437.405
Cosmos 2499 27 Aug 23:51:08 23:58:14 85° 263° (W) 00:05:23 435.465 / 435.565
O/OREOS (USA 219) 27 Aug 23:52:51 23:57:29 87° 71° (ENE) 00:02:05 437.305
VELOX 1 27 Aug 23:53:53 23:58:19 84° 255° (WSW) 00:02:49 145.980
CUBEBUG 1 27 Aug 23:55:48 00:00:11 66° 259° (WSW) 00:04:36 437.445
BUGSAT 1 27 Aug 23:58:12 00:00:07 13° 90° (E) 00:02:00 437.445
SO-50 27 Aug 23:59:05 00:03:56 77° 122° (ESE) 00:08:45 436.795
QB50P1 27 Aug 23:59:37 00:03:32 36° 98° (E) 00:07:25 145.935-145.965
AUBIESAT-1 28 Aug 00:00:12 00:03:38 20° 262° (W) 00:07:06 437.475
ANTELSAT 28 Aug 00:04:40 00:08:23 29° 292° (WNW) 00:12:05 437.575/2403.000
M-CUBED/EXP-1 PRIME 28 Aug 00:06:49 00:09:33 15° 265° (W) 00:12:18 437.505
POPSAT HIP 1 28 Aug 00:09:31 00:13:36 46° 99° (E) 00:17:38 437.405
DX 1 28 Aug 00:10:53 00:15:15 80° 257° (WSW) 00:19:40 434.975-435.025
SPROUT 28 Aug 00:12:55 00:17:13 79° 77° (ENE) 00:21:34 437.525
50 SAT 28 Aug 00:23:22 00:26:36 31° 263° (W) 00:29:51 437.505
TISAT 1 28 Aug 00:32:15 00:35:55 29° 68° (ENE) 00:39:36 437.305
TIGRISAT 28 Aug 00:36:30 00:39:05 16° 297° (WNW) 00:41:39 435.000
ESTCUBE 1 28 Aug 00:37:00 00:40:01 18° 268° (W) 00:43:04 437.505/2401.250
DUCHIFAT 1 28 Aug 00:37:02 00:41:15 85° 106° (ESE) 00:45:26 145.980
DANDE 28 Aug 00:39:39 00:42:13 69° 281° (WNW) 00:45:02 436.750
QB50P2 28 Aug 00:39:54 00:44:07 74° 286° (WNW) 00:48:19 145.880/145.840
POLYITAN 1 28 Aug 00:42:25 00:46:38 73° 286° (WNW) 00:50:49 437.675
AISAT 28 Aug 00:43:55 00:47:34 25° 265° (W) 00:51:15 437.250
GONETS M04 28 Aug 00:46:02 00:53:47 36° 276° (W) 01:01:32
NANOSAT C BR1 28 Aug 00:50:58 00:55:09 63° 286° (WNW) 00:59:16 145.865
UKube-1 28 Aug 00:51:36 00:55:36 36° 262° (W) 00:59:39 .
JAS-2 28 Aug 01:11:06 01:17:55 84° 105° (ESE) 01:25:29 435.910
ITUPSAT 1 28 Aug 01:12:38 01:15:49 18° 62° (ENE) 01:19:00 437.325
Oscar 19 28 Aug 01:25:38 01:29:48 24° 93° (E) 01:33:55 437.125/150
BUGSAT 1 28 Aug 01:31:47 01:35:51 55° 287° (WNW) 01:39:50 437.445
RS-15 28 Aug 01:34:07 01:45:30 70° 117° (ESE) 01:57:30 29.354- 29.394
QB50P1 28 Aug 01:35:54 01:39:05 21° 294° (WNW) 01:42:14 145.935-145.965
SO-50 28 Aug 01:41:25 01:44:57 20° 321° (NW) 01:48:28 436.795
SWISSCUBE 28 Aug 01:44:08 01:48:32 39° 69° (ENE) 01:52:56 437.505
POPSAT HIP 1 28 Aug 01:46:16 01:49:02 17° 296° (WNW) 01:51:47 437.405
Cosmos 2499 28 Aug 01:46:57 01:50:09 14° 283° (WNW) 01:53:21 435.465 / 435.565
BEESAT 28 Aug 02:01:00 02:05:35 51° 71° (ENE) 02:10:13 436.000
TISAT 1 28 Aug 02:07:57 02:11:32 26° 265° (W) 02:15:07 437.305
DUCHIFAT 1 28 Aug 02:15:58 02:16:16 10° 301° (WNW) 02:16:33 145.980
MOZHAYETS 4 28 Aug 02:16:11 02:17:32 11° 59° (ENE) 02:18:53
PHONESAT 2.4 28 Aug 02:21:19 02:23:50 24° 161° (SSE) 02:26:20 2401.200-2431.200
Gurwin Techsat 1B 28 Aug 02:36:57 02:42:07 49° 100° (E) 02:47:15 435.225
ITAMSAT 1 28 Aug 02:40:55 02:44:07 16° 91° (E) 02:47:17 435.822/435.867
ITUPSAT 1 28 Aug 02:48:33 02:53:13 56° 259° (W) 02:57:55 437.325
JAS-2 28 Aug 02:57:33 03:02:19 21° 301° (WNW) 03:07:25 435.910
AO-7 28 Aug 03:03:18 03:08:29 18° 89° (E) 03:13:37 29.400- 29.500
Oscar 19 28 Aug 03:04:21 03:09:19 45° 290° (WNW) 03:14:14 437.125/150
SWISSCUBE 28 Aug 03:22:37 03:26:25 24° 266° (W) 03:30:15 437.505
CUBESAT XI-V 28 Aug 03:37:42 03:38:15 10° 58° (ENE) 03:38:49 437.345
BEESAT 28 Aug 03:40:25 03:43:40 18° 268° (W) 03:46:55 436.000
KKS-1 28 Aug 03:41:45 03:46:11 64° 73° (ENE) 03:50:39 437.445
RS-15 28 Aug 03:47:42 03:58:50 45° 323° (NW) 04:10:28 29.354- 29.394
MOZHAYETS 4 28 Aug 03:49:26 03:54:00 87° 251° (WSW) 03:58:35
PHONESAT 2.4 28 Aug 03:56:58 03:59:52 46° 177° (S) 04:02:46 2401.200-2431.200
AO-85 28 Aug 04:02:16 04:02:46 10° 106° (ESE) 04:03:15 145.980
STARS 28 Aug 04:16:51 04:21:15 74° 75° (ENE) 04:25:43 437.465
Gurwin Techsat 1B 28 Aug 04:17:35 04:21:44 24° 297° (WNW) 04:25:53 435.225
ITAMSAT 1 28 Aug 04:18:54 04:24:02 65° 288° (WNW) 04:29:10 435.822/435.867
Cosmos 2491 28 Aug 04:24:34 04:32:25 34° 68° (ENE) 04:40:13 435.465 / 435.565
AO-7 28 Aug 04:54:01 05:02:23 85° 108° (ESE) 05:10:42 29.400- 29.500
HORYU 2 28 Aug 04:55:06 04:57:51 16° 92° (E) 05:00:36 437.375
CUBESAT XI-V 28 Aug 05:10:15 05:14:51 83° 74° (ENE) 05:19:30 437.345
KKS-1 28 Aug 05:21:01 05:23:10 13° 270° (W) 05:25:19 437.445
BRITE-PL 28 Aug 05:23:14 05:27:11 19° 89° (E) 05:31:04 437.365/2234.400
PHONESAT 2.4 28 Aug 05:33:13 05:35:58 32° 194° (SSW) 05:38:42 2401.200-2431.200
AO-85 28 Aug 05:37:12 05:42:30 74° 122° (ESE) 05:47:30 145.980
YUBILEINY 28 Aug 05:40:06 05:47:57 38° 85° (E) 05:55:49 435.215
Cosmos 2504 28 Aug 05:45:48 05:48:39 12° 75° (ENE) 05:51:26 435.465 / 435.565
STARS 28 Aug 05:56:52 05:58:08 11° 271° (W) 05:59:23 437.465
RS-15 28 Aug 06:05:49 06:15:36 27° 356° (N) 06:25:35 29.354- 29.394
NOAA 18 28 Aug 06:06:14 06:09:34 16° 91° (E) 06:12:53 137.9125
Cosmos 2491 28 Aug 06:21:07 06:29:41 58° 269° (W) 06:38:14 435.465 / 435.565
HORYU 2 28 Aug 06:30:25 06:34:42 50° 289° (WNW) 06:38:57 437.375
GOMX 1 28 Aug 06:34:48 06:39:49 37° 95° (E) 06:44:35 467.674
LilacSat-2 28 Aug 06:39:20 06:42:47 33° 97° (E) 06:46:13 437.200
STRAND 1 28 Aug 06:39:28 06:44:15 42° 69° (ENE) 06:49:03 437.568
DOVE 4 28 Aug 06:40:27 06:43:54 18° 89° (E) 06:47:14 437.250
AO-7 28 Aug 06:47:55 06:54:14 25° 309° (NW) 07:00:32 29.400- 29.500
Cubesat XI-IV 28 Aug 06:49:54 06:55:00 45° 99° (E) 07:00:04 437.490
SO-50 28 Aug 06:50:10 06:53:10 17° 36° (NE) 06:56:08 436.795
CUBESAT XI-V 28 Aug 06:52:25 06:52:50 10° 273° (W) 06:53:15 437.345
BRITE-PL 28 Aug 07:00:26 07:06:06 66° 286° (WNW) 07:11:38 437.365/2234.400
NOAA 15 28 Aug 07:01:25 07:06:46 73° 104° (ESE) 07:12:04 137.62
CUTE-I 28 Aug 07:01:33 07:06:48 58° 101° (E) 07:12:01 437.470
PHONESAT 2.4 28 Aug 07:10:59 07:11:46 11° 209° (SSW) 07:12:31 2401.200-2431.200
AO-85 28 Aug 07:19:28 07:23:26 22° 319° (NW) 07:27:13 145.980
CINEMA 3 28 Aug 07:20:04 07:20:58 11° 87° (E) 07:21:52 145.822/145.860
Cosmos 2504 28 Aug 07:32:15 07:40:37 68° 94° (E) 07:48:25 435.465 / 435.565
YUBILEINY 28 Aug 07:35:58 07:44:29 51° 286° (WNW) 07:53:03 435.215
NOAA 18 28 Aug 07:45:17 07:50:46 71° 288° (WNW) 07:56:10 137.9125
PRISM 28 Aug 07:53:21 07:56:39 24° 67° (ENE) 07:59:59 437.425
CANX-2 28 Aug 07:54:58 07:58:16 22° 94° (E) 08:01:35 2200.000
CUTE 1.7 + AOD 2 28 Aug 08:00:58 08:04:17 22° 94° (E) 08:07:36 437.475
COMPASS 1 28 Aug 08:11:43 08:13:56 14° 90° (E) 08:16:10 437.405
GOMX 1 28 Aug 08:13:01 08:17:45 31° 294° (WNW) 08:22:19 467.674
LilacSat-2 28 Aug 08:14:15 08:16:52 18° 294° (WNW) 08:19:27 437.200
DOVE 4 28 Aug 08:17:01 08:21:59 54° 288° (WNW) 08:26:39 437.250
STRAND 1 28 Aug 08:19:26 08:23:34 25° 266° (W) 08:27:44 437.568
AIST 1 28 Aug 08:19:55 08:22:12 14° 84° (E) 08:24:31
RS-15 28 Aug 08:21:40 08:32:55 38° 31° (NNE) 08:44:06 29.354- 29.394
HO-68 28 Aug 08:22:53 08:29:43 45° 99° (E) 08:36:29 435.675
ISS 28 Aug 08:28:41 08:31:37 31° 138° (SE) 08:34:34 145.825
SO-50 28 Aug 08:29:41 08:34:20 89° 231° (SW) 08:38:49 436.795
CUSAT 1 28 Aug 08:30:21 08:32:59 12° 62° (ENE) 08:35:47 437.405
Cubesat XI-IV 28 Aug 08:30:30 08:34:49 26° 296° (WNW) 08:39:07 437.490
BRITE-PL 28 Aug 08:41:49 08:43:29 11° 305° (NW) 08:45:08 437.365/2234.400
CUTE-I 28 Aug 08:42:33 08:46:24 21° 299° (WNW) 08:50:15 437.470
NOAA 15 28 Aug 08:42:36 08:45:56 17° 301° (WNW) 08:49:16 137.62
Oscar 11 28 Aug 08:50:32 08:52:09 12° 89° (E) 08:53:46 145.826/435.025
UNISAT 6 28 Aug 08:52:52 08:55:01 13° 61° (ENE) 08:57:09 437.425
CINEMA 3 28 Aug 08:54:11 08:58:45 75° 285° (WNW) 09:03:04 145.822/145.860
FUNcube-1 28 Aug 08:58:25 09:00:18 13° 90° (E) 09:02:09 145.935
UWE-3 28 Aug 09:05:31 09:09:04 26° 95° (E) 09:12:33 435.000/436.395/437.385
SEEDS 28 Aug 09:07:23 09:11:36 85° 99° (E) 09:15:50 437.485
BEESAT 3 28 Aug 09:07:56 09:11:06 24° 114° (ESE) 09:14:17 437.485
CUBEBUG 2 28 Aug 09:08:41 09:12:45 42° 98° (E) 09:16:41 437.445
ZACube-1 28 Aug 09:19:00 09:22:21 23° 94° (E) 09:25:41 437.345
ANTELSAT 28 Aug 09:27:45 09:31:39 28° 68° (ENE) 09:35:30 437.575/2403.000
Cosmos 2504 28 Aug 09:27:49 09:34:34 27° 293° (WNW) 09:41:00 435.465 / 435.565
PRISM 28 Aug 09:28:14 09:31:50 30° 263° (W) 09:35:29 437.425
NOAA 18 28 Aug 09:28:49 09:30:25 11° 307° (NW) 09:32:02 137.9125
CANX-2 28 Aug 09:30:22 09:34:12 34° 290° (WNW) 09:38:01 2200.000
DANDE 28 Aug 09:31:42 09:34:07 13° 67° (ENE) 09:36:45 436.750
CUTE 1.7 + AOD 2 28 Aug 09:36:22 09:40:11 33° 290° (WNW) 09:44:00 437.475
AAUSAT CUBESAT 2 28 Aug 09:37:00 09:41:11 83° 284° (WNW) 09:45:21 437.432
DELFI C3 28 Aug 09:37:20 09:39:46 15° 92° (E) 09:42:11 145.870
YUBILEINY 28 Aug 09:42:51 09:43:53 10° 310° (NW) 09:44:55 435.215
COMPASS 1 28 Aug 09:45:43 09:49:48 52° 287° (WNW) 09:53:52 437.405
AIST 1 28 Aug 09:55:04 09:59:19 52° 282° (WNW) 10:03:38
TIGRISAT 28 Aug 09:57:51 10:02:20 53° 73° (ENE) 10:06:44 435.000
HUMSAT D 28 Aug 10:01:20 10:03:29 14° 91° (E) 10:05:37 437.325/437.525
QB50P2 28 Aug 10:01:51 10:02:17 10° 60° (ENE) 10:02:44 145.880/145.840
POLYITAN 1 28 Aug 10:04:10 10:04:48 10° 60° (ENE) 10:05:26 437.675
ISS 28 Aug 10:04:53 10:08:01 40° 336° (NNW) 10:11:10 145.825
CUSAT 1 28 Aug 10:09:27 10:15:49 65° 78° (ENE) 10:23:27 437.405
HO-68 28 Aug 10:10:50 10:17:19 39° 298° (WNW) 10:23:47 435.675
NANOSAT C BR1 28 Aug 10:11:20 10:12:48 12° 61° (ENE) 10:14:16 145.865
SO-50 28 Aug 10:13:44 10:14:00 10° 254° (WSW) 10:14:15 436.795
Oscar 11 28 Aug 10:24:26 10:28:43 65° 286° (WNW) 10:32:59 145.826/435.025
UNISAT 6 28 Aug 10:26:34 10:31:10 73° 258° (WSW) 10:35:42 437.425
BEESAT 2 28 Aug 10:27:35 10:31:31 88° 135° (SE) 10:35:32 435.950
FUNcube-1 28 Aug 10:32:50 10:36:54 55° 287° (WNW) 10:40:56 145.935
